Location: Unspecified
(41.5000°N, 0.0000°E)
Time: 13:15:55
(UTC+00:00)

Courier 1B Rocket - Pass Details

Date: 29 June 2019
Orbit: 921 x 1202 km, 28.2° (Epoch: 17 July)

Event Time Altitude Azimuth Distance (km) Brightness Sun altitude
Rises 06:02:44 0° 256° (WSW) 3,864 7.5 15.0°
Reaches altitude 10° 06:06:52 10° 235° (SW) 2,843 6.9 15.8°
Maximum altitude 06:10:30 15° 203° (SSW) 2,436 6.8 16.4°
Drops below altitude 10° 06:14:02 10° 170° (S) 2,732 7.3 17.1°
Sets 06:17:53 0° 148° (SSE) 3,627 8.2 17.8°
